GFSSW_sfc_dewp_354.txt.gz
Dewpoint
51 51 51 50 50 50 51 51 50 50 50 50 50 50 51 50 51 40 33 34 40 48 48 41 38 47 47 46 44 39 35 32 33 31 29 27 21 20 21 22 26 31 37 54 59
50 50 50 50 50 50 50 50 50 50 50 50 50 50 49 49 41 38 44 46 51 53 46 36 35 37 42 41 42 37 34 32 31 29 29 27 24 22 20 21 27 38 56 58 59
50 50 50 50 50 50 50 50 50 50 50 49 49 49 49 46 37 40 50 49 46 46 44 44 37 35 38 40 37 37 33 31 27 28 30 29 28 25 22 22 25 35 53 54 56
50 49 50 49 49 49 50 50 50 49 49 49 49 49 49 42 21 46 48 43 45 40 34 37 38 38 36 36 37 32 34 33 30 27 30 29 29 26 25 27 26 36 53 54 55
49 49 49 49 49 49 49 49 49 49 49 49 48 48 45 35 34 32 41 36 33 32 31 29 36 37 34 34 35 30 29 27 28 27 28 28 27 27 27 28 32 51 53 53 54
49 48 49 49 49 49 49 49 49 48 48 48 47 47 41 32 31 29 31 32 32 31 31 29 29 38 38 32 33 31 29 25 24 23 27 26 26 27 28 30 38 50 50 52 54
48 48 48 49 49 49 49 49 48 47 47 47 47 42 34 31 35 34 35 34 33 33 32 32 34 40 39 35 32 31 29 25 22 23 25 27 26 26 28 32 38 44 49 52 54
48 48 48 48 48 48 48 48 47 48 45 45 44 38 32 36 34 32 31 30 33 35 34 34 35 37 39 40 37 27 33 21 22 23 25 26 23 25 29 32 38 41 47 51 54
48 48 48 48 48 48 47 46 48 48 44 45 36 35 30 39 29 28 30 30 32 32 34 33 34 34 36 37 33 28 21 21 20 21 24 25 23 25 29 30 36 41 46 49 51
47 47 48 48 47 47 47 48 46 41 33 28 32 31 32 24 27 29 31 33 31 30 30 31 35 32 33 34 24 21 18 17 17 18 19 22 23 24 28 28 31 40 44 46 49
47 47 48 48 47 46 44 29 28 25 30 30 28 28 27 26 29 28 33 33 34 31 27 30 32 27 28 30 34 21 18 16 16 18 20 19 23 24 28 28 29 36 44 45 48
48 48 48 47 46 47 39 30 33 36 32 31 30 28 28 27 25 25 32 33 35 30 30 30 30 26 24 28 29 27 22 21 23 25 24 23 22 25 29 30 32 33 44 45 45
47 48 49 48 46 39 29 30 37 38 31 27 24 23 25 24 23 29 33 34 32 30 27 24 26 28 25 23 31 29 26 31 25 28 28 25 23 24 29 31 33 40 42 41 38
47 48 48 46 38 33 28 33 39 39 28 15 16 20 21 23 26 35 38 37 35 32 29 29 31 30 25 21 29 29 32 34 30 26 22 25 17 26 28 32 31 36 38 37 37
47 47 46 45 36 29 32 36 40 40 15 13 17 22 22 20 23 33 39 37 32 30 31 28 32 32 29 30 29 29 34 33 33 27 24 24 19 21 26 29 30 32 36 36 36
47 46 44 35 34 31 34 40 39 29 11 12 18 20 21 22 24 28 32 38 37 32 31 28 29 32 33 35 31 33 33 34 33 30 22 22 21 16 25 27 29 31 34 35 33
47 46 42 32 29 33 38 38 28 16 16 16 18 21 22 22 25 29 31 31 29 25 24 27 25 31 33 29 31 29 26 20 20 18 13 22 20 22 25 27 31 32 33 32 31
48 47 40 28 34 37 38 34 12 17 20 20 21 23 16 22 24 27 28 25 31 30 27 24 20 26 28 30 26 26 24 19 14 9 16 20 13 22 24 26 29 30 30 30 30
46 35 33 31 35 37 35 20 17 20 20 22 24 19 20 22 24 26 27 25 27 31 25 26 22 29 31 31 29 25 24 22 20 20 17 18 19 20 22 25 30 29 27 26 29
38 32 31 33 37 36 33 17 17 20 23 25 23 21 19 22 23 26 24 29 28 31 34 29 24 29 30 32 31 27 26 19 21 17 16 21 19 18 19 22 28 27 20 22 28
40 28 31 34 38 31 24 21 19 21 25 26 22 24 21 22 22 24 23 27 31 29 34 32 28 24 32 29 27 25 23 24 21 20 18 11 18 20 22 23 25 26 20 20 22
37 32 34 35 31 33 24 21 21 20 23 27 30 24 23 23 20 24 21 28 33 29 28 32 27 23 22 24 30 31 28 27 19 17 19 22 20 22 22 23 25 23 21 19 21
31 29 36 36 26 26 20 17 21 20 22 23 24 25 23 22 20 22 21 28 28 28 28 31 22 19 20 22 24 29 24 26 28 26 18 14 17 22 25 25 25 23 20 17 19
33 32 35 34 31 24 21 21 21 23 22 22 24 23 24 20 22 21 21 23 24 27 29 30 23 18 18 21 24 22 24 23 23 22 25 18 19 22 24 24 25 22 19 17 18
32 31 30 27 28 24 23 23 20 20 22 23 23 20 24 19 20 20 23 23 24 26 26 25 22 18 20 20 22 21 19 20 19 20 18 19 19 23 25 24 22 23 21 18 17
34 32 31 29 24 25 24 20 20 21 22 22 22 24 25 23 26 22 24 23 24 23 18 22 22 21 18 20 20 21 22 22 22 21 21 22 20 23 22 22 19 17 17 18 20
35 34 34 29 28 26 23 22 21 23 24 25 26 26 24 27 28 29 29 30 30 24 17 21 12 15 20 18 15 15 12 19 22 22 22 20 20 22 22 24 24 20 18 18 21

GFSSW_sfc_dewp_360.txt.gz
Dewpoint
52 52 52 52 51 51 51 51 51 51 51 51 51 51 51 50 50 43 38 37 47 52 50 42 35 33 38 50 45 42 36 32 32 30 28 32 30 28 22 33 51 53 48 52 61
51 51 51 51 51 51 51 51 51 50 50 50 50 50 50 50 45 41 46 52 48 48 44 44 42 39 30 42 48 39 36 34 33 34 32 32 30 27 19 34 48 50 55 58 59
51 51 51 51 50 50 50 50 50 50 49 49 50 50 50 48 35 38 49 48 47 45 41 40 39 40 37 34 41 43 35 34 32 32 34 32 28 29 21 23 45 49 53 57 57
51 50 50 50 50 50 50 50 49 49 49 49 49 49 49 45 -3 47 47 44 42 35 32 31 30 29 35 36 36 35 38 38 37 38 37 33 33 28 25 22 39 52 54 56 56
51 50 50 50 50 50 50 49 49 48 49 48 48 48 45 38 38 38 44 37 33 32 31 31 29 29 27 32 35 35 35 37 37 40 38 37 33 29 27 33 52 54 53 55 55
50 50 50 50 50 49 49 49 48 48 48 49 47 46 41 26 36 34 34 34 34 33 33 33 31 30 30 30 32 33 35 35 37 37 37 34 31 29 34 49 53 52 52 55 55
50 50 50 50 49 49 49 48 48 48 49 49 44 41 39 30 35 35 33 31 33 33 32 34 33 32 33 32 34 36 33 32 34 36 34 32 26 26 39 51 50 50 50 54 54
50 49 49 49 49 48 48 48 49 49 49 43 43 40 34 36 36 32 29 29 30 32 33 34 36 35 34 34 33 31 31 28 27 33 36 30 26 25 42 49 47 48 48 53 53
49 49 49 49 48 48 48 47 44 43 42 35 38 36 31 35 25 27 29 28 29 32 33 34 35 35 36 32 29 28 20 27 30 33 33 29 23 26 35 47 46 47 48 51 51
49 49 49 48 48 48 46 43 41 37 34 27 30 26 25 22 28 29 29 31 33 34 35 33 32 31 30 31 19 20 23 27 27 29 34 30 23 25 29 44 47 47 47 50 49
49 48 48 48 47 45 35 32 30 22 32 29 28 29 27 29 30 27 28 35 36 35 30 34 28 24 26 28 31 26 26 28 32 31 30 31 30 24 25 38 43 47 47 47 49
48 48 48 48 47 40 33 32 34 32 29 31 32 32 32 31 26 29 36 32 33 30 32 31 28 28 28 31 31 28 26 26 31 30 30 28 25 25 28 33 43 46 46 47 48
48 48 49 49 46 35 33 34 38 38 29 27 29 26 23 24 24 34 37 36 32 30 29 29 28 34 30 32 28 27 25 26 28 32 28 25 23 27 33 38 43 45 46 46 47
48 47 49 49 30 34 31 34 39 39 19 10 17 21 23 25 26 37 39 36 33 30 30 30 34 34 30 29 28 19 28 26 30 30 21 27 13 22 29 33 40 42 44 46 47
47 47 47 45 31 31 30 35 39 37 -1 12 19 24 23 24 24 26 38 34 30 28 30 23 28 30 30 28 27 25 31 30 32 29 29 26 20 21 30 30 36 40 40 39 36
47 47 47 35 32 32 33 38 34 12 -8 17 22 21 23 24 24 28 30 32 35 29 29 28 31 35 32 34 33 35 31 32 30 23 17 27 24 19 25 27 34 37 38 38 35
47 47 45 39 26 32 37 31 14 1 17 16 19 22 23 22 23 26 26 20 24 19 14 24 26 28 33 30 32 31 25 20 16 15 14 25 22 22 25 29 31 36 35 35 34
48 45 40 33 33 34 28 19 1 16 17 21 22 23 20 22 21 24 23 21 24 25 20 17 14 24 31 32 30 29 25 20 13 16 19 26 16 20 28 30 34 34 34 35 34
46 37 30 29 34 35 22 11 11 12 19 22 22 20 20 21 21 21 16 24 24 26 19 15 20 28 30 32 30 25 21 24 21 24 19 20 19 23 28 29 29 30 31 31 32
38 35 30 33 35 26 21 14 18 21 24 26 18 22 20 21 18 16 13 23 24 26 29 28 16 29 30 29 27 25 26 16 20 6 8 18 18 19 19 26 27 26 28 28 30
35 27 29 35 30 23 12 16 20 20 25 25 22 23 21 17 9 9 11 20 25 26 26 26 23 20 27 25 26 25 21 22 20 19 16 14 17 18 17 17 22 23 25 26 28
32 22 31 31 22 18 15 19 22 21 24 25 27 27 24 22 11 16 13 18 26 26 16 22 26 14 19 24 30 31 27 23 14 11 17 16 16 21 20 24 19 24 22 22 26
27 27 35 24 12 13 18 18 22 21 22 22 22 25 24 21 14 20 21 24 24 25 23 23 13 9 12 19 22 28 27 25 21 19 15 11 14 25 26 25 24 23 23 24 25
29 21 27 28 23 18 17 18 20 23 23 23 23 23 23 21 22 18 21 23 22 26 28 27 17 17 16 18 24 23 21 21 20 13 9 11 16 20 23 24 23 14 9 11 20
30 24 24 20 20 21 18 20 21 19 22 23 21 22 22 17 15 17 21 21 22 26 21 18 15 18 21 21 22 22 17 19 14 18 13 14 15 20 21 20 17 15 12 12 13
31 27 28 23 23 22 19 18 20 21 19 19 18 22 23 18 20 21 24 22 21 22 10 14 14 17 14 19 21 20 19 20 20 21 20 19 18 20 22 23 22 19 16 15 16
34 32 28 24 22 20 21 21 21 21 20 22 22 21 21 23 27 26 27 28 28 25 21 11 13 15 7 15 8 9 14 17 22 19 20 18 20 22 23 23 22 19 15 15 25

GFSSW_sfc_dewp_366.txt.gz
Dewpoint
52 52 52 52 52 52 51 51 51 51 51 51 50 51 50 51 49 44 44 41 46 48 45 38 37 39 34 42 48 45 38 32 30 28 24 30 29 30 33 38 45 47 45 51 61
52 52 52 51 51 51 51 51 51 50 51 50 50 51 50 50 40 44 46 45 46 44 37 35 33 36 34 30 42 42 36 32 33 32 30 32 31 31 27 33 42 46 50 57 59
52 52 51 51 51 51 50 51 50 50 50 50 50 50 49 47 39 42 52 46 45 39 32 32 31 31 35 37 31 38 34 36 34 33 36 35 35 35 34 23 37 42 50 57 58
52 51 51 51 51 50 50 50 50 49 49 49 49 49 48 42 21 42 47 47 44 35 32 31 31 28 27 30 35 31 31 30 32 34 35 37 38 38 35 28 29 38 51 56 58
51 51 51 51 51 50 50 50 47 48 47 48 49 47 40 28 31 35 46 40 33 33 31 30 31 29 27 27 28 28 26 30 31 32 32 35 37 38 37 37 37 49 54 56 57
51 51 50 50 50 50 49 47 45 47 49 47 47 46 32 27 29 34 35 33 29 32 31 32 30 30 29 28 28 29 30 31 31 30 31 31 35 37 33 46 49 52 54 55 57
51 50 50 50 49 49 48 44 45 47 45 44 45 41 30 29 35 36 36 30 29 30 29 32 32 31 31 30 32 32 30 31 29 28 28 31 31 32 36 43 47 48 54 55 54
50 50 50 49 49 49 45 44 44 44 45 41 45 37 29 33 37 29 29 28 28 29 31 32 34 33 32 33 33 31 30 26 24 24 28 32 23 24 35 43 46 47 51 53 53
50 50 49 49 48 46 44 44 42 41 41 45 31 29 18 30 25 28 29 28 29 31 33 33 35 33 35 31 29 29 22 23 24 23 24 31 22 27 31 43 44 46 48 52 52
50 49 49 49 48 43 44 40 36 33 32 28 30 15 19 21 27 30 30 31 31 35 33 34 32 30 31 30 18 18 22 22 22 25 30 28 26 27 32 39 41 44 47 51 50
50 49 48 48 47 40 35 29 26 16 28 28 28 26 23 29 30 26 37 33 34 32 28 32 29 22 25 26 27 27 26 24 25 26 26 26 28 26 31 39 40 43 45 49 49
49 49 48 48 42 39 32 31 32 32 25 28 30 31 31 32 27 25 33 31 32 27 28 28 23 26 32 33 31 27 26 24 24 27 32 28 27 31 31 36 39 43 44 48 48
49 48 48 49 42 35 31 31 36 36 25 20 18 27 23 25 23 25 34 31 30 26 25 24 24 28 30 28 30 28 26 24 25 31 30 28 28 29 34 38 40 42 45 48 47
49 48 48 47 28 31 28 33 38 34 17 4 15 20 23 25 22 26 35 35 29 26 28 26 28 29 28 29 31 24 26 27 27 27 22 32 20 24 32 35 37 41 44 47 47
49 47 47 40 29 26 29 33 39 27 -4 8 17 23 24 21 22 23 30 28 27 27 27 21 25 27 28 31 32 25 28 28 31 28 26 26 21 24 34 30 34 39 42 43 43
48 47 46 38 29 30 33 36 25 13 -10 13 20 21 22 24 22 26 26 28 29 23 24 26 29 30 32 32 33 33 31 32 31 25 17 24 24 22 25 27 31 38 37 39 38
48 46 42 38 27 32 36 26 15 5 12 13 19 22 22 22 21 22 23 18 21 13 11 19 20 25 34 30 28 32 26 8 12 9 15 24 21 21 27 28 30 34 35 35 36
48 43 37 34 34 34 24 18 -4 11 16 21 22 23 18 22 20 20 19 18 21 22 17 14 11 21 27 33 30 29 28 15 7 11 16 26 16 20 29 31 33 33 34 34 34
43 36 30 33 35 27 20 8 6 11 18 22 21 19 17 21 19 18 12 18 21 20 15 12 14 20 27 29 32 26 25 25 23 19 14 20 22 25 29 29 31 32 32 32 34
35 32 28 34 28 23 20 13 17 20 23 24 18 21 18 19 16 13 10 19 21 20 23 22 14 19 23 26 27 28 27 19 21 14 12 19 20 19 21 23 29 30 29 30 31
32 22 27 32 25 20 11 13 19 20 24 24 20 20 21 15 8 15 8 19 23 22 20 25 19 15 21 25 26 26 24 24 19 22 12 16 18 20 20 21 24 27 28 29 29
28 22 28 25 19 17 16 19 21 20 23 25 26 24 22 21 6 16 10 17 24 24 21 23 20 10 16 21 23 31 26 24 20 15 15 15 17 25 23 24 24 25 25 26 28
26 26 32 21 12 11 18 18 22 21 21 22 21 25 23 20 11 18 20 24 24 23 24 20 12 5 8 15 20 19 25 23 20 16 12 8 14 23 24 24 25 25 25 26 27
34 26 24 25 21 15 15 16 20 22 22 22 23 23 21 18 21 17 19 22 22 25 27 23 18 13 9 18 24 17 21 22 15 13 9 11 15 20 22 24 24 24 24 24 25
33 29 25 16 17 18 14 18 19 19 21 22 21 21 17 16 17 15 20 21 21 25 20 15 13 12 16 19 21 24 19 19 13 16 11 13 13 17 20 22 24 21 20 21 23
32 31 28 20 22 18 17 15 19 20 17 18 16 21 22 17 14 9 22 22 19 21 11 11 9 15 9 17 15 19 17 17 17 19 16 16 17 19 19 18 15 10 9 11 12
36 34 31 22 20 16 17 19 20 20 18 20 21 20 20 22 23 23 24 27 26 24 19 6 4 10 6 12 4 7 11 16 19 15 17 15 18 20 20 22 20 16 12 12 13

GFSSW_sfc_dewp_369.txt.gz
Dewpoint
53 52 52 52 52 52 52 51 51 51 51 51 50 51 50 52 49 44 43 45 44 44 42 35 33 37 35 40 48 44 38 33 31 28 25 31 30 31 31 36 45 48 47 51 61
52 52 52 52 52 51 51 51 51 50 50 50 50 50 49 50 41 44 51 47 46 44 33 32 30 36 33 31 41 44 36 32 34 32 32 36 35 34 33 33 38 47 49 55 61
52 52 51 51 51 51 51 51 50 48 49 49 49 50 48 45 36 41 48 48 44 40 33 33 32 30 34 38 31 36 34 33 34 33 36 35 36 38 36 34 34 33 36 51 59
52 51 51 51 51 50 50 49 47 48 49 49 49 49 47 37 22 39 47 48 46 37 33 32 31 30 28 26 34 29 30 28 29 28 30 30 35 34 37 38 38 33 37 41 57
52 51 51 50 50 50 49 47 47 48 49 48 48 47 34 28 29 33 45 41 31 31 31 31 30 30 27 27 28 28 27 27 28 32 31 31 30 31 35 37 39 41 50 47 54
51 50 50 50 50 49 48 46 46 47 46 47 47 45 28 22 29 34 35 34 29 30 31 32 30 31 29 29 28 29 29 29 31 31 30 28 28 29 31 38 37 38 45 52 54
51 50 50 50 49 49 45 47 45 45 46 43 47 39 25 25 34 36 33 31 30 30 29 32 32 32 31 30 32 32 31 30 29 30 29 29 27 26 28 33 34 36 42 52 56
51 50 50 50 49 45 45 46 43 44 43 46 43 34 26 33 34 28 29 30 31 30 31 32 34 33 32 33 32 31 30 24 24 25 27 28 20 24 26 29 33 34 43 48 54
50 50 49 49 49 43 46 43 39 43 44 40 29 23 19 28 25 28 30 30 31 33 35 34 35 33 35 30 28 29 22 23 23 26 25 28 23 26 27 31 33 37 43 47 52
50 50 49 49 48 42 45 37 35 33 31 26 29 15 20 22 28 30 29 34 33 34 33 34 33 30 31 28 19 19 22 22 22 24 28 25 25 27 28 29 30 34 41 47 50
50 49 49 49 45 41 37 30 26 19 28 26 27 25 24 29 30 26 35 32 33 31 27 30 28 23 24 27 29 28 27 25 24 25 26 27 27 26 29 30 35 39 43 46 49
50 49 48 49 41 40 34 33 32 32 22 28 28 29 30 31 26 24 32 29 31 26 27 26 21 24 27 28 29 30 26 25 24 26 27 26 26 28 30 31 34 38 42 46 47
50 49 48 48 41 34 30 32 35 35 23 14 16 24 22 25 23 23 31 30 31 26 26 25 24 27 29 29 29 28 27 25 24 27 28 29 26 26 33 38 39 42 44 48 46
49 49 48 44 27 30 28 32 38 33 17 4 13 19 22 25 22 25 32 34 28 25 26 26 27 27 27 27 30 24 27 26 27 28 22 31 18 26 32 35 37 40 44 47 46
49 48 47 38 27 25 29 33 38 27 0 6 16 23 24 22 22 22 29 27 27 25 27 19 25 24 26 29 31 26 31 31 31 28 25 26 23 26 33 32 36 37 39 41 44
49 47 45 37 28 29 34 35 24 16 -4 10 20 21 22 23 22 24 25 27 27 22 22 25 27 28 30 32 32 33 32 31 30 24 17 24 23 20 24 28 30 36 36 37 38
49 46 41 35 28 33 35 25 16 10 10 12 18 22 22 22 21 21 22 18 18 12 12 17 18 21 33 29 28 29 24 12 13 14 16 26 19 21 27 30 32 33 34 34 36
48 41 36 32 34 33 23 18 -0 9 15 20 22 22 18 21 19 20 19 18 21 21 17 14 12 18 21 30 29 28 28 20 12 14 17 21 15 21 30 33 33 33 34 34 33
39 34 30 33 34 25 20 10 5 9 17 22 20 17 16 20 18 17 11 16 21 20 17 11 13 18 22 29 30 27 24 27 23 21 14 20 22 26 25 28 31 31 31 32 32
33 29 28 33 27 22 20 13 17 20 22 23 17 20 17 19 16 15 10 18 21 20 24 20 13 16 20 25 27 28 27 21 22 14 10 19 19 18 21 22 28 28 28 30 31
30 22 25 30 24 20 12 12 19 20 23 23 19 19 20 16 13 15 9 18 23 22 22 23 18 14 19 23 23 25 22 23 22 22 16 16 18 25 23 24 24 26 27 28 29
28 33 28 24 19 18 16 19 21 20 24 25 25 22 22 21 8 17 10 17 24 24 21 24 19 10 15 19 19 30 24 23 19 19 18 18 18 25 25 25 25 25 26 28 29
30 28 31 21 14 12 18 18 21 20 21 22 21 24 23 20 11 17 19 24 24 24 24 23 9 8 9 14 19 21 23 24 21 19 14 12 17 23 24 25 26 25 26 26 28
35 34 30 27 22 16 15 16 19 22 21 22 22 22 20 18 20 18 19 22 22 25 26 22 17 11 9 13 21 15 21 21 16 16 13 16 17 20 22 23 24 24 24 24 26
35 30 28 29 21 17 13 17 19 18 21 22 21 21 16 9 15 15 19 21 21 24 19 14 11 11 15 16 19 21 19 19 13 18 13 16 15 19 22 23 23 22 22 23 25
33 32 29 25 21 18 16 13 18 19 17 18 16 21 20 16 13 8 18 20 19 21 9 10 8 13 9 17 13 18 17 18 19 19 18 17 18 21 23 20 18 13 12 18 20
37 34 34 26 22 15 15 17 19 19 17 19 20 19 19 21 22 21 20 24 25 23 13 8 8 10 5 11 4 8 10 17 18 18 19 17 20 21 21 22 22 18 11 13 20

GFSSW_sfc_dewp_375.txt.gz
Dewpoint
53 53 53 52 52 52 52 51 50 50 51 50 50 51 51 52 52 40 40 45 44 47 43 24 22 20 25 28 38 39 27 18 17 15 17 23 30 28 32 32 26 30 38 41 48
52 52 52 52 52 51 51 50 50 50 50 49 49 50 51 51 29 32 45 48 48 45 26 25 23 22 17 21 29 34 23 17 26 30 28 29 33 31 31 30 28 30 38 38 40
52 52 52 52 52 51 50 49 50 50 50 49 49 49 49 46 26 26 47 46 46 40 25 26 25 23 18 20 20 21 23 22 20 24 26 26 24 26 26 27 29 29 35 38 39
52 52 51 51 51 50 48 49 49 49 49 49 49 47 44 35 19 27 45 43 41 30 25 24 23 24 22 17 19 18 11 11 15 15 16 17 19 17 17 20 26 30 34 35 37
52 51 51 51 51 50 47 50 48 47 48 49 48 47 35 21 24 29 40 36 25 25 25 25 22 24 22 21 22 21 20 21 20 22 23 24 24 23 22 19 16 17 22 31 35
53 51 50 51 51 48 47 49 47 47 48 49 48 47 23 20 28 27 25 24 25 28 27 27 24 25 25 25 25 24 25 26 26 25 26 26 25 24 22 22 20 18 15 15 27
52 51 50 50 50 47 47 48 46 46 47 47 46 29 20 21 26 25 25 24 31 31 30 29 28 28 27 26 28 28 26 26 24 23 23 24 23 21 20 19 20 20 20 17 20
52 51 50 50 50 45 47 46 44 47 46 44 44 25 21 23 26 24 23 23 31 33 32 32 31 31 30 29 28 25 26 23 21 22 22 23 20 20 19 19 19 19 19 19 17
52 51 49 49 48 45 46 44 42 41 40 39 25 19 12 27 21 24 22 23 31 33 34 34 33 32 31 28 27 26 20 20 19 21 22 23 21 21 22 22 22 22 22 21 20
52 51 49 49 46 44 45 41 38 37 30 23 18 18 15 17 24 25 21 24 30 30 31 31 32 30 28 25 21 21 22 21 20 21 22 23 23 21 21 21 22 22 22 25 28
52 51 49 49 45 43 38 27 23 19 22 21 20 17 16 21 26 16 21 23 28 26 21 27 28 22 22 24 25 24 26 25 25 22 22 21 21 21 23 25 25 23 24 27 29
52 51 49 48 43 43 30 29 33 35 14 17 19 16 21 22 18 17 21 24 26 18 19 26 23 23 24 25 25 25 25 25 21 22 26 25 24 25 26 27 28 28 26 28 28
52 51 50 47 41 32 29 33 37 36 21 9 15 16 19 22 18 17 22 23 25 17 19 21 23 24 22 23 26 25 25 23 23 28 27 28 26 29 28 32 31 30 29 31 32
52 51 48 45 35 26 27 34 39 38 26 6 7 15 19 19 20 20 23 24 22 17 22 23 25 21 22 23 24 26 24 25 27 29 23 33 23 26 27 31 29 32 35 31 37
52 51 45 39 27 23 31 36 40 36 31 7 11 18 19 17 18 17 23 23 22 19 22 17 19 21 25 30 25 26 28 27 29 29 28 30 26 24 24 25 29 34 37 39 42
52 48 44 35 31 32 36 39 36 32 20 7 13 16 14 15 16 18 24 25 22 22 18 17 19 22 33 28 24 27 28 28 28 28 23 26 25 21 24 27 29 31 34 35 37
51 43 37 31 27 35 39 33 33 30 6 9 11 16 15 15 18 16 25 26 23 20 19 18 16 17 20 24 26 28 26 23 20 22 21 26 21 24 28 29 29 29 31 32 33
48 39 36 33 33 35 30 31 31 7 12 13 16 16 13 18 14 17 18 20 23 22 21 17 15 15 17 23 26 27 29 23 14 15 17 22 19 25 31 31 31 30 31 32 32
44 42 34 35 32 30 28 33 16 20 14 15 15 11 11 15 17 18 22 21 20 24 19 19 10 14 17 19 24 24 24 25 25 21 23 20 23 29 29 28 29 27 28 29 31
45 39 34 32 31 28 35 21 13 16 19 20 15 14 9 16 18 22 23 21 20 26 24 22 17 14 17 22 23 22 22 20 24 17 15 20 20 19 22 23 26 25 26 28 30
38 41 32 28 32 28 33 16 15 19 21 21 17 17 14 22 22 22 23 21 22 21 27 23 20 15 19 21 19 23 23 23 23 25 19 15 20 27 26 26 26 26 27 29 29
39 42 35 28 34 34 27 17 19 18 23 23 23 20 19 19 22 22 23 23 24 22 23 21 21 17 13 18 21 24 21 22 19 19 24 21 21 25 29 28 27 27 28 30 31
44 42 34 31 35 34 18 16 20 18 18 21 20 21 22 20 20 19 18 23 24 23 24 23 22 17 21 22 19 21 20 21 23 24 23 20 19 23 25 29 28 27 27 30 31
45 40 39 32 30 24 22 17 18 22 19 20 20 21 20 18 19 20 17 19 22 23 24 22 20 18 14 18 20 19 20 20 22 21 20 21 20 22 24 25 26 27 27 28 30
43 40 36 35 34 24 24 21 16 18 20 20 20 20 22 20 19 18 18 19 21 23 23 22 18 18 16 15 15 16 20 21 22 20 20 21 22 22 24 26 26 27 27 28 28
43 39 35 30 22 25 27 27 17 20 22 18 22 15 20 22 21 19 20 18 20 22 23 23 18 17 16 16 18 17 15 19 22 22 20 21 21 21 22 20 24 25 26 27 27
39 36 41 33 29 28 31 27 18 22 22 23 22 21 21 23 22 22 24 24 24 25 24 21 19 17 15 14 17 18 21 21 21 23 21 21 22 21 22 21 25 27 26 26 27

GFSSW_sfc_dewp_381.txt.gz
Dewpoint
53 53 53 53 53 52 51 52 52 51 51 51 51 51 52 53 51 38 38 43 42 48 44 25 24 24 24 27 31 37 30 26 22 26 28 28 23 25 29 24 27 28 31 38 41
54 52 52 52 52 51 50 52 51 51 51 51 51 51 51 51 40 33 42 45 45 45 26 23 22 22 21 22 26 31 29 23 16 16 16 19 17 17 15 15 18 20 23 29 30
53 52 52 52 51 50 50 51 50 50 51 51 51 50 49 46 30 28 43 44 44 38 26 24 23 23 23 20 22 21 23 18 14 21 23 22 22 23 21 17 18 17 20 20 25
52 52 51 51 51 49 49 51 50 49 50 51 50 50 51 37 21 26 42 41 42 34 27 25 26 23 23 21 22 19 18 20 24 27 27 24 24 24 23 22 23 23 23 22 21
52 51 51 51 50 48 49 50 49 49 49 51 51 53 38 23 24 26 41 34 29 31 29 27 25 24 23 23 25 23 24 27 27 28 27 26 26 26 25 27 27 25 25 25 25
53 52 50 50 50 48 49 49 48 49 50 50 52 52 28 17 24 24 23 20 27 31 31 30 29 27 25 26 26 25 28 27 27 27 27 26 26 27 27 27 25 25 25 24 25
54 53 51 50 49 47 48 48 47 49 49 47 49 37 21 19 23 23 22 20 27 32 32 32 31 29 29 27 29 27 26 27 27 26 25 23 22 21 23 24 23 22 21 22 26
54 54 52 49 49 46 48 48 46 49 49 46 49 32 20 23 25 24 21 20 23 34 35 34 35 33 30 31 31 27 26 22 25 24 25 25 20 22 24 24 24 23 22 24 26
54 54 52 49 48 49 49 51 46 46 47 49 27 21 13 30 20 25 21 20 22 31 34 33 35 33 32 29 23 23 18 22 22 25 25 25 23 25 25 24 24 23 23 24 25
54 54 53 49 47 49 49 50 44 41 33 30 19 16 17 19 23 22 21 22 25 29 32 33 31 29 27 23 16 20 20 22 21 23 24 24 24 26 27 26 27 30 31 33 33
55 55 53 48 47 48 39 31 30 20 20 18 18 17 17 20 22 19 22 22 26 26 18 28 27 21 21 22 23 23 22 22 24 25 27 26 25 25 29 29 26 28 29 31 34
55 54 54 48 47 47 35 34 34 34 13 16 17 17 20 20 16 19 24 22 24 16 19 22 21 20 21 23 25 24 22 21 23 27 26 25 25 27 30 25 25 27 28 30 34
55 54 54 49 48 34 33 33 37 37 22 14 16 16 18 20 18 21 25 24 24 15 17 19 22 22 21 23 23 22 22 23 23 26 27 24 22 24 24 24 24 27 28 30 32
56 54 53 49 35 29 30 36 39 38 20 9 12 14 18 21 19 24 27 24 23 17 19 22 21 21 21 23 24 20 24 24 25 25 17 30 15 22 22 22 23 25 27 29 32
56 54 51 47 33 28 32 37 39 38 14 12 12 16 17 14 16 18 29 25 21 19 19 15 17 18 20 21 24 23 25 24 25 20 26 26 22 16 22 20 24 25 27 29 31
56 53 48 37 35 33 35 38 37 25 4 12 15 16 17 18 17 22 26 27 26 22 20 19 20 21 23 24 23 25 24 23 25 17 10 19 22 15 21 23 24 25 27 29 31
56 53 44 34 28 34 37 35 25 13 13 12 11 16 17 18 18 21 23 19 14 3 7 18 16 19 19 20 23 24 22 6 6 6 9 26 19 20 26 27 27 26 27 29 30
54 53 44 33 34 34 33 29 11 15 15 16 16 17 16 16 16 21 19 17 22 18 9 12 2 13 15 19 20 22 21 13 3 2 14 25 18 22 29 30 30 28 28 29 29
51 47 39 36 32 31 31 18 14 17 16 16 18 11 13 19 19 20 14 16 21 19 7 6 8 16 17 17 21 20 14 21 19 13 16 22 21 28 26 25 25 27 27 28 28
45 43 40 32 32 32 28 17 15 19 20 21 16 14 11 19 15 15 11 20 21 22 20 18 12 15 18 22 21 22 22 14 15 4 5 15 13 18 21 23 23 25 26 27 29
44 39 37 30 35 30 22 17 18 20 24 23 19 17 16 14 10 8 11 21 22 22 22 21 16 10 17 17 18 21 15 19 18 21 13 13 12 28 25 26 24 25 26 28 28
41 36 39 35 32 31 24 19 22 20 25 25 23 21 18 19 14 16 15 19 24 22 12 21 15 7 11 14 20 22 18 19 12 7 17 18 16 28 25 26 26 25 27 28 30
41 41 39 38 24 28 18 19 22 21 22 22 22 22 22 20 11 20 18 27 25 23 14 17 8 5 0 10 15 14 17 16 19 19 16 11 16 25 24 22 24 25 27 28 29
40 34 39 33 32 27 21 21 21 24 22 21 21 21 20 19 20 17 18 22 24 25 25 21 13 4 -0 1 12 7 15 16 18 12 9 16 18 22 21 21 23 21 27 28 28
40 34 36 32 32 25 25 25 19 21 22 21 20 20 19 12 16 17 18 19 24 25 22 15 5 7 15 16 17 17 15 12 9 16 15 14 16 21 21 18 19 16 27 27 27
37 34 33 27 25 26 25 23 20 23 21 19 20 19 22 15 15 12 16 17 17 22 11 13 6 13 8 16 17 16 18 18 16 18 20 21 22 22 20 22 20 17 16 26 26
38 37 37 34 27 27 28 26 24 23 24 24 22 21 20 22 23 23 23 22 21 15 12 18 11 4 1 12 6 8 9 13 19 19 20 17 20 22 21 22 22 19 21 22 25